Weather History for North Bend, OR

Change the Weather History Date:

Sunday, March 17, 2013

  Actual Average Record
Temperature  
Mean Temperature 46 °F 48 °F  
Max Temperature 52 °F 54 °F 79 °F (1939)
Min Temperature 39 °F 42 °F 23 °F (1917)
Degree Days  
Heating Degree Days 19 17  
Month to date heating degree days 286 298  
Since 1 July heating degree days 3324 3472  
Cooling Degree Days 0 0  
Month to date cooling degree days 0 0  
Year to date cooling degree days 0 0  
Moisture  
Dew Point 38 °F    
Average Humidity 79    
Maximum Humidity 100    
Minimum Humidity 56    
Precipitation  
Precipitation 0.00 in 0.26 in 1.72 in (1945)
Month to date precipitation 1.97 4.52  
Year to date precipitation 8.74 22.30  
Sea Level Pressure  
Sea Level Pressure 30.32 in    
Wind  
Wind Speed 6 mph (North)    
Max Wind Speed 13 mph    
Max Gust Speed -    
Visibility 10 miles    
Events      
T = Trace of Precipitation, MM = Missing Value Source: NWS Daily Summary

Daily Weather History Graph

Daily Weather History Graph

Search for Another Location

Airport:

Trip Planner

Search our weather history database for the weather conditions in past years. The results will help you decide how hot, cold, wet, or windy it might be!

Date:

Astronomy

Mar. 17, 2013 Rise Set
Actual Time 7:24 AM PDT 7:26 PM PDT
Civil Twilight 6:56 AM PDT 7:54 PM PDT
Nautical Twilight 6:23 AM PDT 8:28 PM PDT
Astronomical Twilight 5:49 AM PDT 9:02 PM PDT
Moon 10:32 AM PDT (3/17) 12:48 AM PDT (3/17)
Length of Visible Light 12h 58m
Length of Day
12h 01m
Waxing Crescent, 32% of the Moon is Illuminated
Mar 17
Waxing Crescent
Mar 19
First Quarter
Mar 27
Full
Apr 2
Last Quarter
Apr 10
New

Hourly Weather History & Observations

Time (PDT) Temp. Windchill Dew Point Humidity Pressure Visibility Wind Dir Wind Speed Gust Speed Precip Events Conditions
12:15 AM 44.6 °F 41.4 °F 41.0 °F 87% 30.27 in 10.0 mi North 5.8 mph - N/A   Overcast
12:35 AM 46.4 °F 41.5 °F 39.2 °F 76% 30.27 in 10.0 mi NNW 10.4 mph - N/A   Overcast
12:55 AM 46.4 °F 41.5 °F 39.2 °F 76% 30.27 in 10.0 mi NNW 10.4 mph - N/A   Overcast
1:15 AM 46.4 °F 42.4 °F 39.2 °F 76% 30.28 in 10.0 mi NW 8.1 mph - N/A   Overcast
1:35 AM 46.4 °F 42.9 °F 37.4 °F 71% 30.28 in 10.0 mi NNW 6.9 mph - N/A   Overcast
1:55 AM 44.6 °F 40.7 °F 37.4 °F 76% 30.28 in 10.0 mi NNW 6.9 mph - N/A   Overcast
2:15 AM 44.6 °F 39.7 °F 35.6 °F 71% 30.29 in 10.0 mi NNW 9.2 mph - N/A   Overcast
2:35 AM 44.6 °F 40.2 °F 37.4 °F 76% 30.30 in 10.0 mi NNW 8.1 mph - N/A   Overcast
2:55 AM 44.6 °F 41.4 °F 35.6 °F 71% 30.30 in 10.0 mi NNW 5.8 mph - N/A   Overcast
3:15 AM 44.6 °F 41.4 °F 37.4 °F 76% 30.31 in 10.0 mi NNW 5.8 mph - N/A   Mostly Cloudy
3:35 AM 44.6 °F 42.2 °F 37.4 °F 76% 30.31 in 10.0 mi NNW 4.6 mph - N/A   Scattered Clouds
3:55 AM 42.8 °F - 39.2 °F 87% 30.31 in 10.0 mi Calm Calm - N/A   Mostly Cloudy
4:15 AM 42.8 °F 41.1 °F 39.2 °F 87% 30.31 in 10.0 mi South 3.5 mph - N/A   Overcast
4:35 AM 41.0 °F - 41.0 °F 100% 30.31 in 10.0 mi Calm Calm - N/A   Overcast
4:55 AM 41.0 °F 39.0 °F 41.0 °F 100% 30.32 in 10.0 mi SE 3.5 mph - N/A   Overcast
5:15 AM 42.8 °F 39.3 °F 41.0 °F 93% 30.33 in 10.0 mi SE 5.8 mph - N/A   Overcast
5:35 AM 41.0 °F 37.1 °F 41.0 °F 100% 30.34 in 10.0 mi SE 5.8 mph - N/A   Overcast
5:55 AM 42.8 °F 40.1 °F 42.8 °F 100% 30.34 in 10.0 mi SSE 4.6 mph - N/A   Overcast
6:15 AM 41.0 °F 36.4 °F 41.0 °F 100% 30.34 in 10.0 mi SE 6.9 mph - N/A   Overcast
6:35 AM 41.0 °F 37.1 °F 41.0 °F 100% 30.34 in 10.0 mi SE 5.8 mph - N/A   Overcast
6:55 AM 39.2 °F 35.9 °F 39.2 °F 100% 30.35 in 10.0 mi SE 4.6 mph - N/A   Scattered Clouds
7:15 AM 39.2 °F 35.0 °F 39.2 °F 100% 30.36 in 10.0 mi South 5.8 mph - N/A   Partly Cloudy
7:35 AM 39.2 °F 35.0 °F 37.4 °F 93% 30.36 in 10.0 mi SSE 5.8 mph - N/A   Partly Cloudy
7:55 AM 39.2 °F 35.0 °F 39.2 °F 100% 30.36 in 10.0 mi SE 5.8 mph - N/A   Mostly Cloudy
8:15 AM 39.2 °F 33.6 °F 39.2 °F 100% 30.36 in 10.0 mi SSE 8.1 mph - N/A   Mostly Cloudy
8:35 AM 42.8 °F 38.6 °F 41.0 °F 93% 30.37 in 10.0 mi SE 6.9 mph - N/A   Mostly Cloudy
8:55 AM 42.8 °F 39.3 °F 41.0 °F 93% 30.37 in 10.0 mi SSE 5.8 mph - N/A   Scattered Clouds
9:15 AM 42.8 °F 38.6 °F 41.0 °F 93% 30.37 in 10.0 mi SE 6.9 mph - N/A   Partly Cloudy
9:35 AM 44.6 °F 40.7 °F 41.0 °F 87% 30.37 in 10.0 mi SE 6.9 mph - N/A   Clear
9:55 AM 44.6 °F 40.7 °F 41.0 °F 87% 30.36 in 10.0 mi SE 6.9 mph - N/A   Mostly Cloudy
10:15 AM 44.6 °F 42.2 °F 39.2 °F 81% 30.36 in 10.0 mi SE 4.6 mph - N/A   Overcast
10:35 AM 46.4 °F - 39.2 °F 76% 30.36 in 10.0 mi Calm Calm - N/A   Scattered Clouds
10:55 AM 48.2 °F - 39.2 °F 71% 30.36 in 10.0 mi Calm Calm - N/A   Clear
11:15 AM 48.2 °F - 37.4 °F 66% 30.36 in 10.0 mi NE 4.6 mph - N/A   Clear
11:35 AM 46.4 °F - 37.4 °F 71% 30.36 in 10.0 mi Calm Calm - N/A   Mostly Cloudy
11:55 AM 48.2 °F - 37.4 °F 66% 30.35 in 10.0 mi Calm Calm - N/A   Scattered Clouds
12:15 PM 48.2 °F - 35.6 °F 62% 30.35 in 10.0 mi East 3.5 mph - N/A   Scattered Clouds
12:35 PM 50.0 °F - 37.4 °F 62% 30.35 in 10.0 mi NNE 5.8 mph - N/A   Mostly Cloudy
12:55 PM 48.2 °F - 35.6 °F 62% 30.34 in 10.0 mi North 5.8 mph - N/A   Mostly Cloudy
1:15 PM 50.0 °F - 37.4 °F 62% 30.34 in 10.0 mi North 5.8 mph - N/A   Scattered Clouds
1:35 PM 50.0 °F - 37.4 °F 62% 30.34 in 10.0 mi NW 10.4 mph - N/A   Scattered Clouds
1:55 PM 51.8 °F - 37.4 °F 58% 30.33 in 10.0 mi NW 8.1 mph - N/A   Partly Cloudy
2:15 PM 50.0 °F - 37.4 °F 62% 30.33 in 10.0 mi NNW 8.1 mph - N/A   Scattered Clouds
2:35 PM 51.8 °F - 35.6 °F 54% 30.32 in 10.0 mi NNW 9.2 mph - N/A   Partly Cloudy
2:55 PM 50.0 °F - 35.6 °F 58% 30.32 in 10.0 mi NW 10.4 mph - N/A   Partly Cloudy
3:15 PM 50.0 °F - 35.6 °F 58% 30.31 in 10.0 mi NNW 12.7 mph - N/A   Clear
3:35 PM 50.0 °F - 37.4 °F 62% 30.31 in 10.0 mi NNW 12.7 mph - N/A   Clear
3:55 PM 50.0 °F - 37.4 °F 62% 30.31 in 10.0 mi NNW 11.5 mph - N/A   Clear
4:15 PM 48.2 °F - 35.6 °F 62% 30.31 in 10.0 mi NNW 12.7 mph - N/A   Clear
4:35 PM 48.2 °F - 35.6 °F 62% 30.31 in 10.0 mi NNW 13.8 mph - N/A   Clear
4:55 PM 48.2 °F - 35.6 °F 62% 30.32 in 10.0 mi NNW 12.7 mph - N/A   Clear
5:15 PM 48.2 °F - 35.6 °F 62% 30.32 in 10.0 mi NNW 12.7 mph - N/A   Clear
5:35 PM 48.2 °F - 35.6 °F 62% 30.32 in 10.0 mi NNW 11.5 mph - N/A   Clear
5:55 PM 48.2 °F - 37.4 °F 66% 30.33 in 10.0 mi NNW 12.7 mph - N/A   Clear
6:15 PM 48.2 °F - 35.6 °F 62% 30.32 in 10.0 mi NNW 13.8 mph - N/A   Clear
6:35 PM 46.4 °F 41.1 °F 37.4 °F 71% 30.31 in 10.0 mi North 11.5 mph - N/A   Clear
6:55 PM 46.4 °F 41.5 °F 37.4 °F 71% 30.31 in 10.0 mi North 10.4 mph - N/A   Clear
7:15 PM 46.4 °F 41.9 °F 37.4 °F 71% 30.31 in 10.0 mi North 9.2 mph - N/A   Clear
7:35 PM 44.6 °F 40.2 °F 37.4 °F 76% 30.31 in 10.0 mi North 8.1 mph - N/A   Clear
7:55 PM 44.6 °F 40.7 °F 37.4 °F 76% 30.30 in 10.0 mi North 6.9 mph - N/A   Clear
8:15 PM 44.6 °F 40.7 °F 37.4 °F 76% 30.30 in 10.0 mi North 6.9 mph - N/A   Clear
8:35 PM 44.6 °F 41.4 °F 37.4 °F 76% 30.30 in 10.0 mi North 5.8 mph - N/A   Partly Cloudy
8:55 PM 44.6 °F 42.2 °F 37.4 °F 76% 30.31 in 10.0 mi North 4.6 mph - N/A   Mostly Cloudy
9:15 PM 42.8 °F 39.3 °F 39.2 °F 87% 30.32 in 10.0 mi NNE 5.8 mph - N/A   Mostly Cloudy
9:35 PM 42.8 °F 40.1 °F 37.4 °F 81% 30.31 in 10.0 mi NE 4.6 mph - N/A   Scattered Clouds
9:55 PM 42.8 °F 41.1 °F 39.2 °F 87% 30.31 in 10.0 mi NE 3.5 mph - N/A   Clear
10:15 PM 42.8 °F 40.1 °F 39.2 °F 87% 30.31 in 10.0 mi NNE 4.6 mph - N/A   Clear
10:35 PM 39.2 °F 37.0 °F 39.2 °F 100% 30.31 in 10.0 mi NE 3.5 mph - N/A   Clear
10:55 PM 41.0 °F - 39.2 °F 93% 30.31 in 10.0 mi Calm Calm - N/A   Clear
11:15 PM 39.2 °F 35.0 °F 39.2 °F 100% 30.31 in 10.0 mi NE 5.8 mph - N/A   Clear
11:35 PM 39.2 °F 34.2 °F 37.4 °F 93% 30.31 in 10.0 mi NNE 6.9 mph - N/A   Clear
11:55 PM 39.2 °F 35.0 °F 39.2 °F 100% 30.31 in 10.0 mi NE 5.8 mph - N/A   Clear